Regional Weather Roundup
Issued by NWS

Home | Current Version | Previous Version | Text Only | Print | Product List | Glossary On
Versions: 1 2 3 4 5 6 7 8 9 10 11 12 13 14 15 16 17 18 19 20 21 22 23 24 25 26 27 28 29 30 31 32 33 34 35 36 37 38 39 40 41 42 43 44 45 46 47 48 49 50
000
ASUS45 KCYS 261510
RWRWY

WYOMING REGIONAL WEATHER ROUNDUP
NATIONAL WEATHER SERVICE CHEYENNE WY
800 AM MST WED NOV 26 2014

NOTE:  "FAIR" INDICATES FEW OR NO CLOUDS BELOW 12,000 FEET
WITH NO SIGNIFICANT WEATHER AND/OR OBSTRUCTIONS TO VISIBILITY.

WYZ001-261600-
YELLOWSTONE NATIONAL PARK

CITY           SKY/WX    TMP DP  RH WIND       PRES   REMARKS
LK YELLOWSTONE   N/A     32  29  88 VRB5      30.15R WCI  27
W YELLOWSTONE  NOT AVBL

$$
WYZ002>013-054>058-071-098>099-261600-
NORTHERN WYOMING

CITY           SKY/WX    TMP DP  RH WIND       PRES   REMARKS
JACKSON        CLOUDY    39  30  70 SW9       30.19R WCI  33
CODY           CLOUDY    23  23 100 CALM      30.12R
GREYBULL       LGT SNOW  26  25  96 CALM      30.17S FOG
WORLAND        MOCLDY    22  20  92 CALM      30.15R
SHERIDAN       LGT SNOW  27  25  92 CALM      30.18R FOG
BUFFALO        LGT SNOW  24  21  88 S3        30.15S FOG
GILLETTE       CLOUDY    25  23  92 W6        30.16R WCI  18
HULETT           N/A    N/A N/A N/A MISG        N/A
NEWCASTLE      FAIR      27  23  86 NW5       30.19R WCI  21

$$
WYZ014>020-022>026-101>103-261600-
CENTRAL WYOMING

CITY           SKY/WX    TMP DP  RH WIND       PRES   REMARKS
BIG PINEY      PTCLDY   N/A N/A N/A N5        30.21R
PINEDALE       PTSUNNY   36  32  87 W15       30.21R WCI  26
DUBOIS         CLOUDY    37  28  70 W51G61    30.04R WCI  22
LANDER         CLOUDY    25  23  92 VRB3      30.09F
RIVERTON       MOCLDY    21  19  92 E6        30.11S WCI  13
CASPER         CLOUDY    22  19  89 NE3       30.14R
DOUGLAS        CLOUDY   N/A N/A N/A CALM      30.18R

$$
WYZ021-027>030-104>119-261600-
SOUTHERN WYOMING

CITY           SKY/WX    TMP DP  RH WIND       PRES   REMARKS
EVANSTON       PTCLDY    34  28  79 W15       30.35R WCI  24
FORT BRIDGER   CLOUDY    37  32  83 W21G28    30.34R WCI  26
ROCK SPRINGS   MOCLDY    35  29  78 W29G36    30.23R WCI  22
DIXON          CLOUDY    38  29  69 S18G25    30.28R WCI  29
RAWLINS        PTCLDY    36  30  79 W30G43    30.12R WCI  23
SARATOGA       PTSUNNY   37  30  75 W38G45    30.13R WCI  24
LARAMIE        CLOUDY    23  21  92 E5        30.08R WCI  17
CHEYENNE       MIX PCPN  22  18  85 CALM      30.15R
TORRINGTON     LGT SNOW  27  25  92 CALM      30.20R FOG
PINE BLUFFS    CLOUDY    27  23  86 NW5       30.18R WCI  21

$$



USA.gov is the U.S. government's official web portal to all federal, state and local government web resources and services.